{"data":{"norad_id":60079,"intl_designator":"2024-114A","name":"KINEIS-1B","alt_names":[],"object_type":"PAYLOAD","status":"ACTIVE","operator":null,"country":"FR","launch_date":"2024-06-20","launch_site_code":"RLLB","launch_vehicle":null,"mission":null,"orbit_class":"UNKNOWN","rcs_meters":null,"size_class":null,"mass_kg":null,"dimensions":null,"purposes":[],"wikipedia_slug":null,"has_3d_model":false,"image_url":null,"decayed_at":null,"tle_current":{"epoch":"2026-09-22T21:41:00.602016Z","epoch_age_seconds":70895,"freshness":"FRESH","line1":"1 60079U 24114A   26265.90347919  .00000387  00000+0  57113-4 0  9995","line2":"2 60079  97.9803 289.6176 0003602 122.8563 237.2996 14.80752649121869","mean_motion":14.80752649,"eccentricity":0.0003602,"inclination_deg":97.9803,"raan_deg":289.6176,"arg_perigee_deg":122.8563,"mean_anomaly_deg":237.2996,"bstar":5.7113e-5,"rev_number":12186,"period_min":97.247842235668,"perigee_km":624.42616187361,"apogee_km":629.47262611185,"semimajor_km":7005.0863939927,"source":"CELESTRAK","updated_at":"2026-09-23T09:00:20.406415Z"}}}